Theta_e
317 323 325 325 325 325 326 326 325 324 326 325 324 324 326 325 323 323 326 327 323 319 319 320 320 321 321 321 321 320 321 322 322 322 322 323 324 324 325 325 326 327 325 316 313 315 313 313 313 313 314 312 313 314 314 317 318 318 324 325 325 331 327 327 325 320 321 320 318 317 318 319 318 318 317 317 317 319 318 319 320 320 322 322 324 326 323 329
314 320 323 325 325 325 326 326 325 324 325 326 324 323 324 325 325 324 323 326 326 322 320 320 321 322 322 322 321 321 322 322 322 322 323 323 324 324 324 324 326 327 325 317 314 314 311 313 313 312 313 312 314 316 317 319 317 319 327 324 329 334 323 319 320 318 320 319 317 317 318 319 319 317 317 318 317 317 318 320 321 324 329 326 326 329 326 327
312 315 319 324 325 325 326 326 326 325 324 326 325 323 323 323 324 325 324 324 326 326 323 320 321 322 322 322 321 323 323 323 323 323 324 324 325 324 324 325 326 327 325 317 316 317 312 312 313 312 313 312 314 316 318 319 318 318 320 324 333 330 317 315 316 317 320 318 317 317 317 318 318 318 317 317 316 315 316 319 321 326 332 331 331 331 328 327
312 314 316 320 325 326 326 326 326 325 325 326 326 323 322 322 322 324 325 324 324 326 326 324 323 322 322 322 322 323 323 324 325 324 324 324 325 325 325 327 325 326 324 315 316 318 312 311 312 312 312 312 312 315 318 318 319 318 317 326 329 320 317 317 315 317 318 317 318 317 317 317 317 318 317 316 316 315 315 317 319 322 326 327 329 330 328 328
312 314 316 318 321 325 326 326 326 326 326 326 326 324 321 321 321 321 323 324 324 323 326 327 325 325 323 322 323 323 324 326 326 322 323 324 324 325 325 327 326 325 322 313 315 315 311 311 312 312 312 311 312 315 317 318 319 318 317 321 320 316 318 317 314 317 317 318 318 316 317 318 317 317 316 316 317 317 315 316 316 315 317 320 323 325 326 327
313 313 316 319 321 324 326 325 326 326 326 326 325 323 321 320 320 320 321 322 324 322 324 326 326 325 323 322 323 324 325 327 322 316 322 324 323 325 324 326 327 326 321 313 312 312 310 311 312 312 311 311 313 315 317 317 318 319 319 317 316 317 317 316 315 316 317 318 317 316 317 317 316 316 316 316 316 317 316 315 315 315 316 316 317 319 321 324
315 313 315 318 321 325 327 325 326 325 326 326 324 323 321 320 318 318 319 320 322 322 322 325 326 324 323 323 324 325 325 325 320 316 322 326 324 325 325 326 326 325 321 314 313 313 310 311 312 312 311 312 313 314 315 316 317 319 319 317 316 316 316 316 315 315 317 317 316 316 317 316 316 316 316 315 315 316 317 316 316 315 316 316 317 317 317 318
315 312 314 318 322 325 326 326 326 326 325 325 324 323 321 319 318 317 318 319 320 322 321 323 325 323 323 323 324 325 325 325 323 320 321 327 326 324 326 326 323 320 319 315 314 313 311 311 313 312 311 312 313 313 314 315 316 317 318 316 315 315 315 315 315 315 317 316 317 317 315 315 316 316 315 315 316 315 316 317 316 316 316 317 317 316 315 316
315 312 312 318 322 323 325 326 325 325 325 324 324 323 320 319 317 316 318 319 319 320 320 322 324 323 322 323 324 325 326 325 325 322 319 325 327 325 326 325 321 318 318 316 314 312 311 312 313 312 311 311 312 312 313 315 316 316 316 316 315 314 314 314 315 315 316 315 316 316 314 315 315 315 316 315 315 316 316 316 316 317 317 317 317 316 315 315
316 313 311 317 322 322 325 326 325 325 325 324 323 321 320 318 316 316 319 321 320 319 319 321 323 324 322 323 324 324 326 324 326 324 317 319 326 327 326 325 322 320 319 317 314 312 312 313 313 312 312 311 312 312 313 315 316 315 315 316 315 314 314 314 314 314 315 315 315 317 315 314 315 315 317 316 315 316 315 316 316 317 318 318 318 317 315 315
317 314 310 317 323 323 325 325 325 325 324 324 322 321 320 317 316 317 319 321 321 320 319 321 323 323 322 323 324 324 324 324 325 324 316 314 321 326 327 326 324 322 321 318 315 314 313 313 312 312 312 312 312 312 313 314 315 315 315 316 314 314 314 314 314 314 315 315 315 316 315 314 315 315 317 316 315 316 316 316 316 316 317 317 318 318 317 315
316 315 311 316 322 323 324 324 324 324 323 323 321 320 319 317 317 318 320 320 321 321 320 321 322 323 322 323 324 324 324 323 323 322 317 311 314 321 325 325 324 322 321 318 316 315 315 314 311 311 312 312 312 312 313 314 315 315 315 316 315 314 315 314 314 314 315 315 315 315 315 315 316 316 317 316 315 316 315 316 316 315 315 316 317 318 317 315
315 314 314 318 321 322 324 324 324 323 323 321 319 319 319 318 319 319 320 319 320 321 320 321 321 322 323 322 323 324 323 321 321 320 315 311 313 317 322 323 321 318 318 317 316 316 316 315 311 311 312 312 312 312 312 313 314 316 315 316 316 314 316 316 313 314 315 315 315 314 316 320 319 316 316 316 316 316 316 316 315 315 315 315 316 316 315 315
315 314 314 319 321 322 324 324 323 322 322 320 319 319 319 320 320 320 320 319 320 320 320 320 321 322 322 321 322 323 321 318 319 318 314 311 312 314 318 321 320 317 315 315 316 316 315 313 311 311 312 312 312 312 313 313 315 316 314 316 319 318 319 317 313 314 316 314 314 314 316 321 320 316 315 315 316 316 316 316 315 315 315 315 316 315 315 314
314 313 315 318 321 323 323 323 323 322 321 320 320 320 319 319 320 320 319 319 319 319 320 320 321 321 320 319 319 319 319 316 316 316 315 312 311 312 315 317 321 319 314 314 316 315 313 312 312 312 312 312 312 313 313 314 314 315 315 316 317 318 320 318 313 313 316 315 313 314 316 319 318 315 315 315 315 316 316 315 315 315 315 315 316 316 316 316
315 314 315 318 321 324 323 322 323 322 320 320 320 319 319 319 320 319 318 319 319 319 319 320 319 319 318 318 317 317 316 315 315 315 315 313 311 312 314 315 318 317 313 314 316 314 313 313 312 312 312 312 312 313 313 314 314 314 316 321 319 317 319 318 315 313 314 315 313 313 316 318 316 314 314 315 315 315 315 315 315 314 315 315 315 316 317 317
314 315 316 319 321 323 323 322 322 321 320 320 319 318 319 319 319 319 319 318 318 319 319 318 317 318 318 316 315 316 315 314 315 314 315 314 312 312 314 314 315 314 312 313 315 314 313 312 312 312 313 312 313 314 314 313 315 314 316 321 321 318 317 318 317 314 313 314 314 313 315 318 316 313 313 315 314 315 314 314 315 315 315 316 316 316 317 317
314 315 316 318 321 323 322 322 321 321 320 320 319 318 319 319 317 317 318 318 318 318 317 315 316 318 317 315 314 315 315 314 313 314 314 314 313 312 313 313 312 311 311 312 312 312 312 312 312 313 313 312 312 312 315 318 317 316 315 316 318 317 316 318 318 315 314 315 315 314 314 317 317 313 313 314 314 314 315 315 315 315 315 315 316 316 316 317
314 315 316 317 320 322 322 322 321 321 320 319 318 318 318 318 316 316 317 317 316 315 314 314 316 317 316 315 314 314 315 314 312 312 312 313 313 312 311 312 311 311 311 312 312 311 311 312 312 313 313 312 312 311 315 322 320 318 317 316 319 318 314 318 318 315 314 315 316 315 314 315 316 314 312 314 314 314 314 315 314 314 315 315 315 316 316 316
314 315 316 318 319 321 322 322 321 320 319 318 318 318 317 316 316 316 317 317 316 315 314 314 316 315 313 315 314 314 315 313 312 312 311 312 313 311 310 311 311 311 311 312 313 312 311 313 312 312 313 312 312 311 313 317 316 315 316 315 318 319 315 316 317 314 313 315 316 316 315 314 315 315 312 312 314 313 313 313 313 314 314 315 315 315 316 316
314 315 317 320 320 321 321 321 320 319 318 317 317 317 316 315 316 316 316 316 315 315 313 314 316 313 312 314 314 313 314 313 312 311 311 312 312 312 312 311 311 312 311 311 313 312 311 313 312 312 313 313 312 313 312 312 313 314 316 314 315 319 318 315 315 314 312 314 317 316 314 314 315 314 312 311 312 312 312 312 313 314 314 315 315 315 315 315
315 315 317 320 320 321 322 320 319 318 317 317 317 316 315 315 315 315 316 315 314 313 313 313 314 314 312 313 314 313 313 313 313 312 312 312 312 313 313 311 311 312 312 312 312 312 311 312 313 312 312 313 312 313 312 312 314 318 318 315 314 318 318 314 315 315 313 314 317 317 315 315 315 315 312 310 311 313 314 314 314 314 314 314 314 315 315 315
315 316 318 320 319 320 321 319 318 318 316 317 317 315 315 314 314 315 315 315 314 313 313 313 313 314 313 313 313 312 313 313 312 313 313 313 313 313 313 311 311 312 312 312 313 312 312 313 313 311 310 312 313 312 312 313 316 319 319 318 317 317 319 317 315 314 314 314 316 316 316 316 314 315 314 312 312 313 314 315 315 315 315 315 315 315 315 315
315 317 319 320 319 319 319 318 318 317 316 316 316 315 314 313 314 314 314 313 313 313 313 312 312 313 313 314 313 312 312 312 312 313 313 313 313 313 313 311 312 312 311 312 313 312 314 313 311 311 312 312 313 312 313 314 315 318 321 324 322 318 320 320 316 316 315 315 316 314 315 320 318 314 314 313 313 313 313 314 314 315 316 315 316 315 315 315
316 317 318 319 319 319 318 317 317 316 316 316 315 315 313 313 313 313 313 313 312 311 311 311 312 313 314 314 312 311 312 312 312 313 313 313 313 313 313 312 312 312 311 313 313 313 314 312 311 314 313 313 314 314 316 316 315 317 320 325 324 319 321 320 318 320 318 317 318 313 314 328 333 323 316 314 312 312 312 312 312 314 316 315 316 316 315 316
316 317 318 318 318 317 317 316 316 316 316 316 315 314 313 313 313 312 313 314 312 310 311 311 312 313 314 314 312 311 312 312 313 313 313 313 313 313 313 313 313 312 312 312 313 315 314 310 312 316 314 315 316 315 318 318 315 315 318 323 323 323 325 321 320 323 322 317 316 315 314 323 329 326 322 319 316 315 312 311 312 313 315 315 315 316 316 316
316 317 318 318 316 316 316 316 316 316 315 315 315 314 313 312 312 312 312 313 312 311 311 311 312 313 314 313 312 311 312 313 313 313 313 313 314 313 313 313 313 312 312 312 314 315 313 311 314 317 316 316 316 315 318 318 315 317 319 323 325 324 325 324 322 324 324 319 317 320 319 317 320 323 323 320 317 318 316 314 313 312 314 315 315 316 316 316
317 317 317 317 315 314 316 316 316 316 315 315 314 314 313 311 312 313 312 312 313 311 310 310 311 313 313 313 312 311 312 314 314 314 313 313 314 313 313 313 313 314 313 312 316 314 313 315 317 317 316 315 316 318 320 317 317 320 321 324 326 325 328 328 326 324 321 318 320 323 317 316 323 328 326 320 316 318 320 319 316 312 313 315 315 316 317 316
318 318 317 317 314 314 316 315 316 315 315 315 314 314 313 311 312 312 312 313 312 310 310 310 311 313 313 312 312 313 313 313 313 314 313 314 314 313 314 313 312 315 313 313 318 316 313 314 315 317 317 317 320 322 323 322 319 319 320 324 326 326 328 327 328 328 319 315 324 328 319 315 322 329 326 317 317 319 320 320 315 311 314 315 316 317 316 317
318 318 316 317 315 315 315 315 315 315 315 314 314 314 313 311 312 312 312 312 311 311 310 310 312 313 313 312 312 313 313 313 313 313 313 314 314 312 314 313 312 318 321 320 321 317 312 311 313 316 315 316 318 317 318 321 317 316 320 323 322 324 329 329 332 331 318 319 332 332 322 314 315 326 327 317 320 322 318 318 316 313 315 315 315 316 315 316
317 317 316 316 316 315 315 314 314 314 314 314 313 313 312 311 311 312 312 312 312 311 310 310 313 313 312 311 312 313 313 313 312 313 313 314 314 312 313 313 314 319 323 322 320 317 313 313 314 313 310 312 317 317 315 316 316 319 324 322 316 321 331 332 330 324 318 325 333 324 318 315 315 324 325 318 320 320 316 319 321 317 316 315 315 315 315 315
316 317 316 316 315 314 314 314 314 314 313 313 313 312 311 311 311 312 312 311 312 311 310 311 313 313 312 311 313 313 314 314 312 312 313 313 314 313 313 315 315 316 318 318 319 318 317 316 314 312 310 312 318 319 316 317 320 322 320 317 318 321 323 323 323 321 321 324 321 315 315 317 317 319 319 317 319 318 315 316 319 317 315 316 316 315 315 315
316 317 316 316 314 313 314 313 313 313 312 312 312 310 311 311 312 312 310 310 312 311 310 312 313 313 312 311 313 313 315 315 312 312 313 313 314 313 314 317 316 315 317 318 319 320 319 318 315 314 312 312 316 317 316 319 320 317 314 316 323 322 315 315 319 319 320 320 315 313 315 318 318 318 318 318 316 314 313 312 315 316 315 316 315 315 315 314
316 316 315 314 313 313 313 312 312 313 312 312 311 310 311 312 313 312 310 310 312 310 310 312 313 313 312 311 313 314 315 315 312 313 314 314 314 313 314 317 315 317 318 317 318 318 320 318 315 315 313 312 316 316 316 320 318 316 317 317 320 322 319 320 322 322 321 318 314 312 315 321 319 317 319 316 311 312 313 313 315 315 316 317 316 315 315 312
316 315 314 313 313 312 313 312 312 313 312 311 309 310 312 312 312 312 311 311 311 310 310 312 313 313 312 312 313 314 316 316 313 313 313 313 314 313 313 313 314 317 317 315 315 315 316 317 315 315 312 312 317 316 316 317 317 318 319 317 318 323 328 326 322 327 325 317 316 315 318 324 319 314 316 312 310 312 311 312 313 314 314 315 315 315 313 312
315 314 313 312 313 313 312 312 312 313 312 310 309 310 312 311 312 313 311 311 311 310 311 313 313 313 312 313 314 314 315 316 314 313 313 313 313 313 313 313 314 315 314 314 316 316 315 315 315 316 312 311 314 314 315 315 316 319 318 318 321 321 326 323 315 317 318 315 320 317 317 324 319 315 318 313 313 314 312 312 312 312 313 312 313 314 312 312
314 313 313 312 312 312 312 312 312 312 310 308 309 312 312 311 313 314 311 311 310 310 312 313 313 313 312 313 313 314 316 315 314 313 313 313 313 313 313 314 313 314 313 313 316 316 316 315 313 316 316 312 310 310 312 312 314 319 318 318 319 316 320 324 317 315 314 316 323 318 315 322 318 318 324 316 314 318 316 314 311 310 312 311 312 312 312 314
313 312 312 312 313 312 312 312 312 310 309 309 311 312 312 313 314 312 311 311 311 311 312 313 313 312 312 312 312 314 316 315 314 313 313 312 314 314 312 313 313 313 312 312 314 315 319 319 313 312 316 314 311 312 314 312 311 315 317 315 318 317 319 321 318 318 317 316 322 320 316 320 318 320 325 316 315 322 319 316 315 312 311 311 311 312 314 315
312 312 312 312 312 312 312 312 311 309 309 310 311 312 314 317 315 311 311 311 311 312 311 312 313 312 312 312 312 313 315 314 313 313 313 313 315 314 312 313 314 313 310 312 316 317 319 323 316 312 314 314 314 315 315 316 313 313 314 312 316 321 322 321 316 319 322 318 321 321 317 321 323 323 324 316 315 321 318 317 317 311 310 312 312 313 316 315
312 312 312 312 312 312 312 311 310 310 310 310 311 312 316 319 315 311 311 311 311 312 312 312 312 312 313 313 313 314 315 315 313 313 315 313 313 314 312 312 315 314 311 313 318 318 316 320 319 313 312 313 316 316 316 317 314 314 315 313 315 316 318 321 318 321 326 322 322 319 317 329 333 323 319 316 314 318 318 321 318 310 310 313 311 313 317 314
312 312 312 312 312 312 311 311 310 309 311 311 311 314 316 317 314 311 311 311 312 313 313 313 312 311 313 313 314 313 314 315 313 314 316 314 313 315 313 312 314 314 314 316 319 320 318 317 318 315 313 315 318 316 315 316 315 314 314 314 315 315 315 318 317 320 323 322 326 322 318 331 336 322 317 316 315 316 314 315 314 310 311 313 311 315 316 313
311 312 312 311 312 311 310 310 309 308 311 312 312 314 316 314 313 313 312 311 313 316 314 313 312 312 313 314 314 314 314 315 314 314 317 314 314 317 314 311 313 312 314 318 318 318 318 317 317 316 315 316 317 312 309 312 317 316 315 314 314 314 317 318 318 319 316 315 323 322 315 324 331 324 319 314 312 313 311 311 312 311 313 315 315 316 315 313
311 311 312 311 311 311 310 310 309 309 312 313 312 313 314 313 314 314 314 312 314 317 314 312 313 313 314 314 314 314 314 314 315 315 317 316 314 316 313 311 314 313 314 319 317 316 316 317 318 316 314 316 318 315 310 311 316 316 315 316 314 313 318 322 323 323 318 314 317 316 314 323 333 326 315 309 309 310 311 313 312 312 314 315 316 316 314 312
311 311 311 311 311 310 309 310 309 310 313 314 314 315 313 313 315 314 314 314 315 318 315 313 313 313 314 315 314 314 313 314 316 316 317 317 314 313 313 312 314 314 313 316 316 316 319 318 316 316 316 316 319 319 315 313 314 315 316 317 314 313 315 317 317 318 319 320 320 318 317 322 328 321 310 308 311 310 309 311 312 312 312 313 315 315 313 312
311 311 311 310 310 310 310 310 309 309 312 315 316 316 315 315 315 313 314 315 316 319 318 314 314 315 316 315 314 314 314 315 317 316 317 318 315 313 313 313 313 313 314 314 312 316 324 321 316 317 317 315 316 316 316 315 314 315 318 317 316 315 314 316 319 317 317 319 319 318 318 315 316 315 311 312 315 313 310 310 311 312 311 311 313 312 312 312
311 311 311 310 310 310 310 310 310 309 312 314 315 315 316 316 314 312 313 315 315 318 320 318 316 316 315 314 314 314 313 316 319 317 316 319 318 315 312 312 312 311 313 314 311 315 322 319 316 316 315 314 315 316 316 317 315 315 317 316 316 315 313 318 323 319 317 319 317 316 316 314 314 314 314 315 317 317 313 309 309 311 311 311 311 311 312 311
310 311 311 311 310 310 310 311 311 310 311 313 313 314 315 316 315 313 313 315 314 316 320 318 315 316 315 314 315 314 313 317 319 317 317 318 318 314 311 311 312 311 312 312 310 316 320 317 316 317 313 315 320 320 317 316 315 314 316 316 317 317 316 318 319 317 317 319 316 315 316 315 314 314 316 317 318 316 311 307 309 311 311 312 311 311 312 311
309 310 310 310 311 311 310 311 311 310 310 312 313 313 314 315 315 314 315 316 314 315 319 317 315 316 315 314 315 314 313 316 316 315 317 317 316 315 314 312 310 310 312 311 311 317 320 316 315 315 313 316 322 322 317 316 316 315 316 317 318 319 318 316 315 315 317 317 314 314 317 316 313 314 316 315 313 312 309 307 309 310 311 313 313 312 312 312
308 309 309 309 311 310 310 310 310 310 311 312 313 313 314 314 314 314 317 317 315 315 317 317 315 316 316 315 315 314 313 315 314 315 316 315 315 317 317 314 311 310 311 313 313 314 315 317 316 314 312 314 320 322 319 317 316 314 315 316 317 318 318 316 315 314 315 316 314 313 317 316 313 313 314 312 309 309 308 308 309 310 311 313 313 313 313 313
307 309 308 309 310 309 309 310 311 311 311 312 313 312 312 313 313 314 316 316 315 316 316 315 316 317 316 316 315 314 313 314 315 315 314 313 314 316 317 317 315 311 311 314 315 311 312 318 317 314 313 314 318 323 320 318 318 316 315 315 315 317 317 315 315 314 313 314 314 314 316 316 312 311 312 311 310 309 308 308 309 310 310 311 313 314 314 313
306 306 307 309 310 310 310 311 311 311 311 312 313 312 312 312 312 314 314 313 313 315 315 315 316 316 315 316 317 315 314 314 316 314 312 313 314 314 315 314 314 314 314 315 316 314 314 317 316 315 315 314 316 321 319 317 317 318 318 316 314 314 315 314 314 314 314 315 315 315 315 314 312 312 312 311 309 308 308 309 310 310 310 311 312 313 313 313
306 306 307 309 310 310 310 311 311 311 311 311 312 312 312 312 312 313 314 312 311 312 312 313 315 315 315 316 316 315 312 312 314 312 310 312 312 311 312 311 310 314 316 315 316 316 316 316 315 315 316 314 314 317 318 317 317 317 317 316 313 312 313 313 314 315 314 314 315 314 313 313 314 315 314 314 312 308 308 310 311 311 311 311 312 312 313 313
Wind_Speed
42 44 47 47 48 49 49 49 48 46 41 39 41 41 40 39 37 36 36 37 39 40 38 37 36 33 32 30 30 32 34 34 35 33 31 31 30 28 28 26 20 14 12 7 3 4 3 2 4 5 5 5 4 3 3 4 4 2 2 1 3 2 3 4 5 6 7 6 8 13 14 13 7 9 15 12 12 14 9 9 10 7 6 5 4 8 19 25
44 43 45 47 48 49 49 49 49 47 43 41 40 41 41 40 39 38 36 36 38 40 40 38 36 34 32 30 31 31 30 31 33 34 33 31 30 30 31 29 22 17 15 9 2 3 1 4 3 8 7 5 4 2 3 3 5 4 2 1 4 4 2 2 5 11 9 10 13 14 14 14 12 12 15 8 10 15 10 8 11 11 11 8 10 13 18 23
46 44 44 45 48 50 50 50 49 47 44 42 41 40 41 42 41 40 38 37 37 38 39 39 38 37 34 31 32 31 29 27 28 33 32 28 26 25 28 28 22 18 17 12 3 4 1 1 2 9 6 4 5 4 4 3 5 6 4 1 5 5 2 7 3 11 14 18 17 15 14 13 14 15 13 8 10 12 9 10 11 14 16 15 16 17 18 22
48 45 44 44 48 51 50 50 50 48 45 42 41 40 41 42 41 41 41 39 38 37 37 38 38 38 36 33 31 29 26 19 24 32 29 27 26 22 24 27 21 17 18 13 5 6 4 5 4 6 4 3 7 6 5 6 5 5 6 4 5 4 1 5 4 8 20 25 22 18 12 10 15 17 13 12 8 4 10 16 13 14 19 19 20 19 18 21
49 46 44 44 46 49 50 51 50 49 46 44 41 40 40 41 42 42 41 41 40 38 37 36 36 37 35 33 29 26 19 7 15 26 24 28 30 24 24 27 21 18 18 14 8 7 5 4 3 5 2 1 5 4 5 9 8 2 5 9 5 3 2 0 3 8 20 23 21 17 11 11 16 14 15 15 8 5 13 18 16 16 18 19 20 20 20 21
50 49 46 46 46 49 52 53 52 50 48 45 41 40 39 39 42 42 42 42 41 40 38 37 36 35 33 30 26 23 18 7 6 11 14 26 31 26 26 27 22 20 20 14 9 6 3 4 5 6 3 2 3 3 6 10 10 3 6 7 3 2 3 2 2 8 18 21 18 15 13 16 15 9 14 15 9 8 13 16 17 16 16 17 20 21 21 21
50 51 48 47 47 50 54 54 53 52 49 45 41 40 38 38 40 41 42 41 43 42 40 38 36 35 33 28 23 20 22 20 12 9 6 21 28 26 26 24 21 21 21 16 13 9 4 5 8 8 4 2 4 5 8 10 11 7 5 3 1 2 4 4 2 8 17 19 15 15 15 16 12 7 11 13 10 7 7 11 17 19 17 18 19 20 20 19
48 52 50 48 49 51 53 52 53 52 49 46 42 39 37 37 39 40 42 41 43 43 41 39 36 35 32 29 24 20 24 29 23 11 3 16 25 25 27 25 23 22 20 18 17 13 8 7 9 10 4 3 5 5 8 7 8 7 5 3 1 1 3 6 4 8 13 14 12 15 13 11 11 7 8 12 11 9 7 7 13 19 20 20 19 19 19 19
47 52 54 50 49 51 51 51 53 52 49 47 43 39 36 36 38 39 40 39 42 43 42 39 36 35 29 30 27 18 27 29 24 17 5 14 23 26 28 27 26 23 20 20 19 14 11 10 9 9 5 7 7 6 8 3 4 6 6 5 3 2 3 5 6 6 8 9 11 12 8 7 9 6 5 13 14 10 8 6 10 17 21 21 20 19 19 18
48 51 55 52 50 52 52 52 54 51 50 48 42 38 35 35 36 37 37 36 39 41 41 39 36 34 29 31 25 13 28 29 23 20 6 11 23 27 29 28 27 24 21 22 23 20 16 13 9 7 7 9 8 7 7 3 1 4 7 6 5 4 3 3 5 7 6 6 9 9 6 5 8 5 3 11 16 14 12 10 12 15 18 20 20 20 19 18
50 50 55 54 50 53 56 54 54 52 50 47 41 37 34 34 34 34 36 36 37 38 40 39 35 34 32 34 27 17 24 24 24 21 8 9 20 28 32 31 31 28 25 27 28 23 20 17 9 7 6 6 6 6 6 6 3 2 9 6 4 4 3 3 5 7 6 4 7 7 4 3 5 4 7 11 17 18 17 15 15 16 17 18 19 20 20 19
52 50 54 55 50 51 55 54 52 50 49 46 41 37 33 33 33 32 35 35 35 35 35 35 33 34 33 32 33 30 23 19 23 22 13 10 16 24 30 30 29 28 28 32 32 24 23 20 10 10 9 6 5 4 5 8 5 6 8 3 0 2 1 4 5 6 5 4 8 8 3 2 1 8 14 12 15 20 20 18 18 17 17 18 18 20 21 20
53 51 54 54 50 52 53 52 51 50 48 45 40 36 33 31 31 32 34 34 34 32 32 32 32 34 32 27 33 35 23 16 19 20 17 11 14 22 26 28 26 24 25 29 31 27 27 23 12 15 15 10 5 4 5 5 6 6 3 3 1 3 2 6 5 6 4 4 9 7 1 5 6 14 18 12 15 21 21 20 21 19 18 19 19 20 20 20
53 53 55 53 51 54 54 51 50 49 46 42 38 36 34 31 31 33 34 33 32 29 29 31 33 35 32 24 27 31 22 15 18 22 21 13 17 24 26 28 26 24 23 24 29 30 29 22 14 17 17 13 8 6 6 2 3 4 2 2 2 1 4 5 4 7 4 4 8 5 2 5 7 12 13 13 19 22 22 21 21 21 20 20 20 21 21 20
54 55 57 54 52 55 56 53 50 48 45 42 40 37 34 32 32 33 32 31 29 29 30 33 37 33 25 18 20 25 22 18 21 25 26 17 17 24 27 29 29 28 23 21 27 28 27 19 16 16 14 11 8 5 3 2 2 1 3 3 1 3 4 6 2 8 4 3 7 5 2 5 7 7 5 15 23 22 23 22 20 21 20 21 22 22 22 21
54 56 57 55 55 57 58 56 50 48 47 44 42 38 34 33 31 31 30 29 27 28 31 36 40 29 15 12 16 23 25 23 24 25 29 23 14 20 28 30 30 30 24 23 27 27 25 20 17 16 12 7 4 2 1 1 3 1 3 4 3 4 3 4 2 6 4 3 4 3 2 3 5 4 6 14 21 21 20 19 20 21 20 21 22 23 24 23
56 58 56 52 56 58 57 56 51 48 48 46 43 38 35 35 32 29 27 27 26 28 34 38 37 22 8 10 15 26 31 25 24 25 28 27 17 18 30 32 31 31 28 26 27 26 24 20 13 10 9 5 3 4 3 3 4 3 1 2 3 4 4 2 3 5 5 4 4 4 2 4 6 3 8 13 17 18 18 18 19 20 21 21 21 24 26 25
58 59 55 52 55 57 55 55 52 49 49 47 43 39 36 34 30 28 27 28 27 25 27 30 26 12 7 18 23 31 37 28 25 27 26 28 23 18 27 33 32 30 26 21 20 21 18 14 10 5 4 5 5 5 5 5 5 4 4 2 2 3 4 5 3 4 7 3 4 5 3 9 9 6 8 13 15 17 19 20 20 20 21 22 22 24 26 28
60 57 55 55 57 58 56 55 54 52 54 48 43 41 38 35 30 27 28 32 32 22 18 29 31 13 8 28 33 29 35 31 25 27 26 29 25 18 24 30 31 29 22 13 12 17 14 7 7 6 5 6 6 6 6 7 8 8 7 6 5 4 4 5 3 4 7 5 3 7 6 9 9 8 9 13 15 17 19 20 21 21 21 22 23 25 26 28
60 57 57 60 61 60 56 57 58 56 56 50 49 47 38 34 23 18 30 39 43 33 27 46 47 15 3 23 29 24 30 29 25 29 28 29 28 22 24 27 26 23 15 9 8 15 15 6 5 7 6 6 6 6 7 7 6 7 7 6 6 6 3 3 2 3 4 5 4 7 7 7 9 8 10 15 15 16 19 19 21 24 24 24 25 26 26 27
59 57 59 63 65 61 58 62 62 60 56 51 57 50 39 40 22 22 41 38 42 34 22 46 49 8 3 23 32 30 32 23 23 31 27 29 30 23 22 23 18 11 9 11 10 11 13 7 6 8 6 7 7 7 8 9 5 4 6 6 6 5 4 2 2 2 2 3 4 4 4 9 10 8 11 13 10 14 21 20 22 25 27 27 26 26 27 26
59 58 58 62 67 63 62 64 61 61 56 53 59 48 47 54 30 35 45 21 31 30 8 35 47 9 4 29 35 35 34 20 20 31 29 31 30 21 19 17 11 7 7 10 9 7 8 6 7 10 10 8 7 8 8 8 5 2 3 5 5 5 3 1 2 1 2 2 3 2 2 9 10 8 11 12 12 17 25 26 25 26 27 28 29 28 28 28
58 58 57 62 70 67 65 64 58 59 57 58 60 46 52 52 23 36 41 12 22 30 7 27 44 20 13 29 34 38 35 22 22 32 34 35 31 24 22 14 8 9 8 8 8 7 5 5 8 11 11 8 7 9 8 6 3 3 4 5 4 4 4 1 2 1 2 1 1 2 2 6 7 6 8 15 20 20 23 26 27 27 28 28 28 28 30 31
59 60 58 61 70 71 69 64 59 60 58 60 55 45 56 44 15 35 36 10 10 21 14 26 40 27 17 25 34 36 31 25 28 34 37 37 30 24 21 16 11 8 8 10 10 8 5 7 11 11 10 9 7 8 7 6 4 2 3 4 4 5 4 3 3 2 3 4 1 3 5 6 5 6 8 13 17 17 20 23 26 30 31 29 28 28 30 30
61 61 59 60 65 69 68 62 61 61 57 57 48 44 54 36 19 37 30 8 5 9 10 22 32 25 20 25 29 27 21 19 27 37 41 40 34 23 16 17 14 8 10 11 9 8 6 8 11 9 9 11 8 7 8 7 4 4 3 5 6 7 5 6 6 5 4 4 3 3 1 5 5 5 8 7 6 11 18 18 23 31 32 31 31 31 30 30
62 61 61 62 60 63 61 56 60 60 54 53 47 49 51 34 30 40 22 4 4 6 4 19 24 18 20 25 26 23 14 9 21 36 42 37 34 26 15 13 10 8 12 11 6 4 3 4 7 8 11 12 9 7 8 8 5 3 4 4 8 9 9 9 7 4 3 2 3 3 4 5 6 5 8 6 5 9 11 12 20 29 30 31 33 33 31 30
65 64 65 66 61 61 58 54 59 59 55 51 49 53 47 36 38 35 14 1 5 7 7 16 19 16 20 27 31 21 7 10 18 29 40 34 27 24 16 10 7 8 10 7 4 2 3 5 5 7 9 10 9 6 7 8 7 4 4 5 10 10 9 8 7 4 3 3 3 4 4 2 5 6 8 5 6 8 7 8 15 23 28 30 33 33 32 31
68 69 70 72 69 65 60 57 61 62 58 54 54 53 46 44 40 22 8 4 5 7 8 13 16 16 21 31 32 14 9 23 17 19 38 33 20 17 11 8 9 10 9 7 6 3 3 8 8 8 7 6 7 5 7 10 6 4 4 7 8 8 8 6 6 4 2 3 2 5 1 2 5 7 7 4 3 7 8 8 10 17 26 29 31 32 31 30
68 74 73 74 73 65 57 58 61 54 50 54 53 49 47 46 31 8 3 6 5 6 9 15 14 14 20 25 20 8 16 24 11 20 38 28 17 12 7 10 11 9 3 4 7 3 1 7 8 10 8 6 6 2 5 8 4 4 5 7 5 5 5 4 5 4 3 2 4 6 2 2 5 6 5 2 3 7 8 8 8 12 19 24 28 29 27 27
68 75 74 73 71 61 52 54 55 46 46 54 51 49 48 35 15 5 6 6 4 5 10 15 13 15 22 17 9 7 13 10 10 25 29 20 18 11 8 14 12 8 4 6 5 2 2 2 2 3 4 5 6 3 1 4 8 8 7 7 7 6 5 4 3 4 4 1 6 7 3 3 3 6 4 4 5 7 7 6 7 7 9 15 20 21 20 21
70 73 73 72 69 58 51 53 52 50 55 55 49 49 39 15 4 7 9 8 7 4 8 11 10 14 20 15 9 10 7 3 12 23 17 11 13 8 8 12 8 7 4 4 3 4 5 3 0 1 2 5 7 5 6 3 8 9 5 5 5 4 4 4 4 3 2 4 6 5 2 3 3 6 5 5 6 6 6 6 6 5 4 7 10 12 12 13
73 72 72 71 64 54 53 54 53 56 60 57 50 42 24 7 5 6 6 11 9 6 9 13 12 13 19 17 10 9 6 4 11 17 13 9 8 7 7 7 6 7 5 4 3 3 4 1 2 2 1 3 6 5 4 5 3 5 5 7 5 2 3 2 2 1 2 5 4 3 2 2 5 7 8 9 10 8 7 7 8 9 9 9 9 9 9 9
73 72 71 67 57 49 49 51 54 57 57 58 50 29 10 7 9 7 7 9 8 10 13 15 16 16 17 16 9 8 7 6 10 11 10 9 7 7 5 4 8 7 4 5 4 3 1 5 3 2 2 3 5 5 4 0 1 5 7 6 5 4 3 1 3 2 3 5 3 3 2 2 4 6 9 12 15 14 9 7 9 11 11 10 10 9 8 7
71 71 67 58 50 45 47 53 59 58 54 52 39 16 8 9 9 10 10 7 7 12 12 13 16 16 15 12 9 9 6 4 10 11 9 8 7 8 6 6 9 7 5 6 4 5 5 2 3 2 1 4 4 4 7 6 4 5 5 6 6 5 5 4 4 3 3 3 2 2 2 3 3 4 7 10 15 14 9 8 10 11 11 11 10 10 10 8
70 69 59 48 46 44 46 57 62 58 53 42 21 9 11 11 9 10 9 6 7 11 12 16 18 15 12 9 7 9 5 3 8 9 9 10 10 11 9 8 9 7 7 7 4 5 7 2 4 3 1 4 5 3 5 8 4 3 2 5 4 5 5 4 3 5 5 2 1 2 2 5 4 6 9 8 8 7 7 8 9 10 12 12 13 14 13 11
67 62 50 42 44 43 49 61 60 54 51 33 11 8 11 9 8 9 7 8 10 13 16 16 14 12 10 6 7 10 6 5 9 7 7 9 9 11 9 7 9 9 9 9 3 3 6 0 5 4 3 1 2 3 2 5 4 1 3 4 5 4 7 5 2 1 4 3 2 2 3 5 3 5 10 7 5 5 5 7 9 12 13 14 17 17 14 12
62 53 43 40 44 45 54 64 57 51 44 23 9 10 8 5 6 7 7 11 15 18 18 13 10 12 12 8 10 14 8 7 11 9 7 8 6 10 11 7 11 12 10 9 3 3 6 2 4 2 1 2 2 1 2 2 3 4 4 6 4 3 4 4 2 2 3 2 3 2 4 4 2 2 6 4 4 7 7 7 9 10 11 14 17 16 14 12
56 47 39 40 46 49 57 61 54 48 33 13 10 11 4 2 4 7 11 14 17 18 15 11 9 10 13 12 12 15 13 9 11 8 8 8 5 10 14 9 9 13 12 9 4 2 5 3 3 1 2 3 3 2 2 3 1 3 4 4 4 3 2 2 3 2 2 3 4 3 4 3 3 4 4 2 6 8 7 7 7 8 11 14 13 13 14 13
50 39 30 36 47 51 56 57 50 39 19 8 12 10 4 3 3 12 22 19 15 15 12 10 9 7 10 12 11 13 12 11 12 8 7 8 4 8 16 11 7 13 15 10 5 3 4 4 2 3 2 1 3 1 6 2 2 3 2 2 2 2 4 3 3 4 3 3 4 3 2 3 5 6 5 7 9 8 7 7 6 9 14 15 13 14 16 15
46 26 18 36 46 48 56 52 38 24 11 10 11 5 4 4 3 17 33 26 11 7 9 9 11 10 9 10 11 12 9 8 11 8 4 7 4 5 14 12 7 12 14 9 6 3 3 4 3 2 3 1 2 2 6 7 3 2 4 5 3 1 3 2 2 3 4 4 4 2 2 5 6 5 8 11 10 7 8 7 7 13 16 15 14 16 17 15
38 13 13 36 41 45 55 39 20 13 6 7 7 1 3 5 4 15 30 30 13 3 7 10 10 10 9 10 11 11 8 7 10 8 2 7 6 2 10 14 11 11 10 6 5 4 2 3 5 3 1 3 4 4 3 5 4 4 6 8 7 4 4 4 3 2 2 4 4 4 3 7 7 4 7 9 7 7 10 10 10 14 14 11 12 16 16 14
25 6 17 38 40 51 50 22 9 10 5 5 5 2 5 8 7 9 17 23 14 3 6 8 7 8 8 9 10 9 8 7 10 9 3 6 8 3 9 18 20 18 11 4 4 4 4 5 5 2 3 4 5 4 2 2 1 2 4 5 6 5 5 6 5 3 2 2 3 4 3 7 7 4 5 7 7 9 13 13 12 12 11 10 12 16 16 14
15 12 24 36 41 52 38 11 7 7 1 4 4 3 6 6 7 7 8 13 9 3 6 6 6 10 7 7 10 11 10 6 7 8 4 4 7 2 8 22 25 19 10 4 4 5 5 5 5 2 1 3 5 5 2 2 1 2 4 3 4 3 3 5 5 4 4 4 3 2 4 7 6 5 4 5 5 8 9 10 11 11 11 12 15 17 16 15
21 24 27 31 40 42 22 7 11 10 5 6 5 3 4 3 6 9 9 9 6 5 7 5 7 8 5 8 11 13 13 7 4 6 4 5 6 1 6 25 27 16 9 8 8 7 3 2 5 5 3 3 4 4 3 2 2 2 3 2 3 3 3 3 2 3 2 4 6 5 5 7 5 3 1 1 1 2 5 7 9 12 13 15 17 17 16 15
23 19 19 29 38 30 10 3 10 10 7 7 7 7 5 3 3 8 11 8 3 5 6 5 8 8 6 8 8 9 11 7 4 7 3 3 4 3 3 22 26 17 12 14 15 12 5 3 5 6 6 7 5 4 5 4 3 2 3 6 7 7 7 4 3 4 3 4 6 6 8 7 1 4 3 3 3 3 6 8 10 12 14 16 18 19 18 17
15 7 10 19 26 20 5 2 6 8 8 8 6 6 6 5 2 5 10 7 2 6 6 4 9 10 8 11 9 8 10 3 3 7 5 5 4 3 1 13 16 14 15 19 23 16 4 2 6 7 9 10 7 4 4 8 8 7 7 8 7 7 8 5 4 4 5 3 4 10 12 7 2 2 1 5 6 6 8 10 14 16 16 17 18 18 18 17
10 8 11 11 13 13 6 5 6 8 11 12 8 5 8 11 5 3 4 2 4 8 5 2 9 10 11 14 11 10 11 4 5 9 7 5 3 1 3 6 6 8 12 17 21 13 4 4 8 7 8 7 5 5 8 12 12 12 8 7 7 7 7 6 7 8 5 5 6 13 11 9 7 7 8 9 9 7 8 13 19 20 20 19 19 18 18 18
7 11 18 15 9 9 10 10 11 12 14 13 8 6 10 11 9 7 2 1 6 8 4 3 11 14 16 17 12 10 10 5 5 8 5 4 4 2 4 6 5 4 7 10 11 7 4 6 6 6 6 3 4 7 10 11 11 10 11 10 9 10 10 11 14 12 8 7 14 13 9 12 12 8 10 11 10 11 14 18 20 20 20 20 19 19 20 20
5 8 16 15 6 4 8 9 9 12 14 11 6 8 14 15 13 9 3 4 5 3 3 7 11 12 16 16 12 11 11 9 7 6 4 5 6 4 3 3 2 3 5 6 4 3 4 5 3 6 6 3 3 6 8 9 7 6 11 13 12 12 15 16 19 18 13 13 17 7 2 12 13 7 8 9 12 16 15 13 15 17 20 21 20 20 20 19
6 7 10 10 5 6 11 11 8 10 9 8 6 7 13 17 16 9 4 8 10 4 4 12 13 10 12 14 13 12 15 15 12 10 9 8 5 3 4 4 2 3 4 4 2 1 2 4 3 6 5 3 5 5 5 8 8 7 8 11 12 15 16 18 18 15 10 11 15 6 5 13 9 7 8 10 13 14 9 9 16 19 20 20 19 20 19 18
7 5 9 10 5 7 11 8 7 9 7 7 7 7 11 15 17 12 3 3 11 10 8 13 14 9 7 10 11 12 15 14 14 17 20 18 15 11 6 6 8 6 4 4 4 2 2 3 2 5 5 5 6 6 5 6 6 5 6 11 16 16 15 15 13 9 8 12 14 8 9 13 4 7 9 10 10 11 11 15 19 20 20 20 20 21 21 21
9 5 11 14 4 4 11 8 7 10 9 9 8 7 9 10 11 11 5 1 3 8 11 15 14 8 7 9 11 14 18 17 20 26 26 23 23 17 10 15 19 14 8 6 4 3 5 5 3 5 6 5 4 6 8 8 6 4 11 15 19 17 13 10 8 8 12 14 11 11 13 9 3 6 6 5 7 11 15 19 21 22 24 25 24 24 23 23
Wind_Direction
226 227 225 223 224 222 220 224 225 223 222 220 213 208 208 211 216 218 218 216 215 217 218 218 218 218 219 219 222 226 228 232 239 241 240 241 242 240 238 234 228 219 190 190 270 212 228 155 120 356 313 282 295 271 268 235 216 191 120 168 256 237 205 223 201 171 152 150 175 181 165 149 135 130 127 118 136 132 126 132 124 140 145 147 154 157 170 172
224 225 225 224 224 222 219 222 225 224 221 221 217 211 208 209 214 217 219 218 216 218 218 220 221 222 222 223 228 231 232 233 239 241 239 240 242 241 238 233 226 220 199 181 277 262 62 103 99 337 303 267 288 217 237 224 190 185 144 175 234 218 242 295 168 155 139 150 167 173 166 159 160 149 142 134 140 140 127 124 130 131 131 141 153 157 170 175
224 225 225 224 224 221 219 220 223 224 221 221 220 213 209 209 212 215 219 221 219 218 219 221 224 224 224 226 230 231 233 234 239 242 238 235 236 235 230 223 217 219 203 176 243 256 184 26 313 321 307 273 273 228 213 199 196 202 174 224 245 234 325 6 108 163 158 152 156 168 168 165 171 163 157 161 153 155 154 153 147 141 146 153 162 169 175 179
222 225 225 224 221 217 217 217 220 223 220 219 220 216 212 210 210 213 217 220 222 220 219 221 223 224 224 227 228 225 226 231 243 245 239 230 228 226 218 208 202 210 198 176 229 246 229 277 290 301 301 290 274 248 217 200 202 191 172 206 257 259 299 7 15 163 161 154 157 167 161 157 171 174 173 162 147 185 191 186 190 176 172 171 171 179 182 184
220 222 224 224 221 219 218 217 218 221 221 218 219 218 213 211 211 212 215 218 221 222 220 220 222 222 222 222 220 217 215 227 258 254 246 232 226 222 209 199 198 204 190 175 222 235 225 260 277 280 266 262 276 251 221 212 206 207 217 222 258 292 166 30 23 134 155 152 155 159 146 151 163 173 181 169 157 217 211 206 214 205 196 192 187 187 188 191
222 220 222 224 222 221 220 218 217 219 220 217 217 217 213 212 211 211 213 216 219 222 220 220 220 220 218 216 215 210 202 202 281 289 257 225 220 217 201 194 199 203 191 176 204 211 182 228 249 255 206 186 263 237 238 227 210 229 256 229 253 272 152 173 49 124 156 151 149 155 147 151 152 168 185 183 184 206 217 216 214 211 210 206 198 192 193 196
223 220 220 223 221 217 215 215 215 216 218 216 215 215 214 212 212 212 213 214 217 220 219 217 217 218 213 208 207 202 205 221 245 322 282 207 204 204 192 192 197 198 192 181 196 210 204 216 227 227 197 213 242 236 256 244 210 208 266 268 276 201 152 176 99 108 152 150 150 157 150 154 152 160 185 193 194 179 190 204 206 209 206 200 198 198 201 203
221 219 217 221 221 215 212 211 212 214 216 215 213 214 214 213 212 211 212 213 215 217 218 214 212 211 207 201 193 189 209 224 232 263 276 176 180 182 182 188 189 186 185 182 191 201 212 218 227 230 213 226 223 240 271 261 212 207 241 246 188 183 148 176 158 108 136 138 146 153 143 159 163 158 184 193 185 167 162 169 184 194 197 196 199 203 204 206
221 219 215 218 220 215 213 212 212 213 214 212 209 211 213 213 212 211 211 211 212 214 214 212 209 204 201 200 186 185 218 223 221 229 212 161 169 174 182 187 184 181 179 181 187 191 203 207 226 241 242 253 252 271 279 251 203 224 221 196 167 165 141 161 165 133 130 129 142 143 119 138 164 163 199 197 187 183 193 187 174 181 190 194 199 202 202 205
222 219 215 216 219 215 212 210 210 211 211 210 207 206 210 212 211 210 207 207 209 212 211 210 206 197 192 191 176 188 230 227 217 216 205 172 176 178 189 192 187 185 185 187 192 200 200 191 213 263 279 274 270 281 270 204 214 250 201 169 151 160 158 162 166 153 143 137 146 144 117 120 152 166 223 199 191 196 199 192 183 183 189 193 197 200 201 206
221 219 215 214 216 215 209 206 208 209 209 208 205 204 207 210 209 206 205 205 205 207 207 205 199 193 191 185 179 203 230 226 214 207 199 197 189 188 194 195 191 192 196 189 189 201 197 189 216 275 290 285 277 294 275 233 270 179 160 138 130 148 147 161 147 152 151 147 159 137 110 104 121 171 227 199 192 203 198 186 185 189 194 196 197 199 202 207
220 218 215 213 213 212 209 206 206 206 205 203 201 201 202 206 206 202 203 204 203 203 202 199 193 192 188 186 197 213 224 222 213 207 202 199 196 200 200 195 194 197 196 186 184 193 189 189 223 263 269 292 283 297 284 242 220 163 155 130 294 66 85 201 158 166 165 147 162 127 89 277 190 220 226 208 196 200 196 189 188 190 195 198 201 203 207 211
219 216 213 213 211 210 208 204 201 200 200 200 197 195 195 198 198 198 201 201 201 200 195 191 189 187 183 192 210 215 221 223 213 204 194 181 183 197 200 193 190 189 190 187 185 181 176 186 225 253 263 292 288 287 297 248 181 178 172 128 159 13 306 230 181 169 154 149 170 143 185 258 248 235 230 214 195 192 192 194 194 194 196 200 206 209 213 213
217 215 211 211 212 210 206 201 198 197 196 195 190 188 189 189 192 197 198 198 199 196 188 184 183 181 182 198 213 211 215 221 213 200 190 176 168 181 193 192 188 186 189 194 191 179 171 188 234 251 261 274 271 294 312 291 150 180 200 134 137 137 259 262 184 162 135 176 184 149 209 251 258 253 243 212 195 188 191 198 201 202 202 204 209 212 217 216
214 213 209 211 212 208 205 201 197 196 194 189 185 183 183 185 191 195 196 196 196 191 183 178 177 177 184 204 211 205 207 210 205 199 195 186 167 174 184 188 190 191 190 194 194 180 169 194 234 241 255 265 256 285 323 349 345 168 185 245 238 162 251 306 223 176 153 189 189 152 204 258 266 265 238 198 195 193 197 202 205 208 209 210 212 214 219 221
212 210 209 211 209 202 200 198 196 193 190 186 183 179 179 182 186 190 192 190 189 186 180 174 175 174 179 202 203 200 204 206 199 197 199 196 177 171 175 180 185 187 185 180 181 176 176 204 229 228 240 253 223 203 85 341 295 283 166 203 214 175 229 305 273 214 182 148 192 202 209 254 274 244 170 181 192 198 202 204 206 210 215 215 215 217 219 222
209 207 208 207 202 199 195 193 194 190 186 184 179 174 175 176 178 182 182 183 184 181 178 172 171 170 184 199 193 197 201 199 193 192 197 198 193 175 171 175 180 184 184 178 176 179 189 203 208 219 231 221 188 156 158 215 226 260 157 168 220 182 173 225 285 244 188 139 200 218 219 240 275 247 177 182 190 197 204 209 211 212 217 220 220 219 220 221
207 206 207 203 199 197 191 189 190 187 184 180 173 169 171 171 177 180 174 177 173 164 170 169 163 160 217 210 198 198 197 190 185 188 190 192 196 188 176 177 179 180 180 179 183 184 188 193 182 196 213 197 211 171 175 212 193 188 173 174 246 187 179 199 234 222 175 150 203 192 235 251 265 271 215 200 195 202 211 218 221 218 217 221 221 220 221 222
205 204 204 202 199 194 189 188 186 183 180 174 167 164 164 162 169 177 172 170 163 155 168 174 174 172 210 208 201 196 192 184 179 184 186 185 186 187 182 183 179 173 169 172 190 186 177 172 176 195 202 199 210 177 184 207 182 177 181 181 192 185 212 213 230 226 169 150 206 195 221 244 252 266 245 222 209 212 223 228 228 222 219 221 222 222 222 225
203 201 202 200 197 190 187 186 183 179 174 168 162 157 154 150 149 166 170 172 174 174 179 179 177 174 201 195 188 179 177 179 180 179 181 182 177 170 171 174 171 169 170 163 179 186 174 168 199 197 190 192 198 183 196 217 197 181 184 193 194 183 215 237 256 271 147 143 222 218 224 251 252 255 254 242 225 219 225 230 232 225 220 220 221 222 223 228
200 199 200 196 190 187 186 181 180 179 175 169 164 159 157 158 158 174 171 178 186 178 178 181 175 157 340 178 175 169 161 164 179 177 178 180 171 161 163 164 160 171 187 164 156 171 175 189 206 188 180 186 197 199 209 233 235 190 187 197 207 195 211 250 243 276 63 135 244 253 238 259 259 253 260 249 225 222 224 222 229 227 222 222 221 222 226 233
198 198 199 193 184 182 180 176 176 177 173 169 168 167 168 168 173 178 167 167 189 178 170 183 181 195 195 172 175 170 156 148 170 174 175 174 167 162 163 163 161 170 176 161 151 160 181 207 200 187 190 185 198 212 219 232 218 166 167 177 207 208 188 312 329 319 45 132 264 331 238 257 265 260 261 248 225 229 229 223 227 227 223 223 222 223 227 232
196 195 195 190 183 180 178 177 176 174 170 169 171 174 174 170 174 176 163 128 181 188 208 186 188 201 173 166 171 168 161 158 167 172 173 170 169 167 161 160 169 166 168 169 164 167 182 208 203 196 193 187 204 215 217 224 199 140 129 149 203 196 157 211 285 326 42 103 188 39 336 275 273 269 264 249 238 237 236 231 232 231 229 230 229 229 231 232
193 191 189 182 176 176 177 176 174 173 173 173 174 177 173 170 178 172 159 94 165 199 227 193 189 195 180 166 169 169 168 168 169 171 173 170 168 166 162 162 162 164 181 177 163 168 181 190 191 188 189 195 206 214 208 209 233 233 158 147 178 182 164 168 158 116 19 360 64 69 355 302 264 255 257 252 246 245 242 233 230 232 233 236 236 234 236 237
190 189 186 178 170 170 170 168 171 174 174 174 174 175 171 170 180 168 152 78 147 198 231 193 188 195 184 169 171 172 164 167 175 172 172 173 167 160 163 168 167 173 181 168 151 170 199 189 175 170 188 197 199 211 198 185 217 261 218 173 164 164 136 115 118 93 48 336 300 99 20 295 293 267 251 257 261 248 242 230 227 232 232 232 233 235 237 240
187 186 183 180 173 166 163 166 173 174 173 175 174 171 169 167 167 163 148 57 182 172 173 178 184 193 182 172 171 166 152 170 184 175 173 176 171 162 158 167 173 178 171 162 152 179 207 174 165 171 184 188 191 205 197 175 171 234 244 173 138 130 119 127 135 108 107 225 285 93 146 258 316 309 263 266 269 251 243 230 230 233 233 231 232 235 237 239
186 185 181 181 178 170 167 170 174 174 175 178 173 168 166 158 158 159 146 13 203 159 147 170 178 181 181 176 168 161 156 164 170 177 175 173 172 166 163 169 166 170 166 151 169 208 135 140 168 174 173 182 188 199 200 167 150 212 237 138 124 123 134 148 138 118 164 183 335 20 126 211 294 280 274 284 276 276 270 242 236 233 232 233 234 237 238 238
184 185 181 180 182 178 174 172 172 176 178 174 167 167 164 158 162 160 145 183 172 139 150 169 175 177 175 174 171 163 149 152 152 185 179 171 171 169 172 181 157 161 169 155 184 234 126 159 181 167 159 183 192 203 185 151 140 228 205 135 134 134 140 142 118 103 99 112 309 308 122 172 270 271 292 321 268 274 271 247 241 234 231 231 233 235 236 234
179 180 178 177 179 178 176 174 173 176 174 166 163 167 166 165 169 163 154 184 140 131 158 162 170 174 166 170 180 164 147 155 155 178 178 177 177 168 169 181 154 138 135 126 166 208 193 184 185 168 172 188 183 200 182 156 149 195 149 100 84 84 94 99 104 102 65 78 245 258 202 175 270 283 296 318 247 247 256 252 251 247 240 236 235 236 236 233
175 172 171 171 172 173 174 174 174 172 166 161 161 167 167 166 165 157 194 192 128 153 160 156 169 168 160 165 186 169 155 157 139 158 173 184 180 168 149 161 145 112 49 39 107 223 295 171 158 157 172 167 142 85 49 158 146 132 104 77 61 39 41 48 60 90 80 292 251 246 225 161 260 282 249 225 228 218 233 260 268 265 249 237 234 234 233 232
174 168 167 169 170 170 170 169 172 170 162 158 159 162 161 156 162 178 183 151 122 164 156 151 166 160 162 169 175 171 158 112 138 151 168 180 176 175 148 153 140 111 96 56 70 335 1 79 61 9 118 124 109 67 25 72 127 112 96 104 86 18 16 21 360 47 112 250 261 262 251 157 214 266 245 244 263 233 214 233 239 223 185 187 201 207 212 219
172 169 169 171 170 171 170 167 170 168 161 157 158 157 150 141 201 197 159 143 147 189 169 161 169 164 169 173 165 162 140 125 161 161 165 166 173 191 170 166 164 145 160 165 133 13 16 327 289 1 304 158 119 93 33 17 55 90 114 122 105 46 29 25 313 351 210 239 264 284 278 200 228 252 257 268 274 254 230 224 211 189 168 166 180 191 202 213
171 169 168 170 169 171 171 167 167 166 160 157 156 156 154 164 183 174 155 166 171 176 168 163 167 165 166 167 161 160 142 147 174 166 163 158 162 194 208 199 169 147 163 171 125 84 6 309 308 40 298 223 148 134 142 150 82 127 142 139 130 117 95 199 243 273 244 245 268 281 274 251 269 267 246 246 252 252 253 243 212 191 186 191 194 194 197 209
169 168 166 168 169 170 170 166 166 165 161 157 154 162 187 176 175 164 167 189 163 156 157 152 155 156 162 167 166 161 136 139 172 161 155 156 165 196 215 210 179 130 118 155 152 160 166 265 237 171 195 198 183 169 158 151 149 172 169 142 150 158 149 188 203 188 211 247 284 287 266 193 202 259 238 238 257 259 242 214 199 192 193 192 193 193 198 217
167 167 164 165 166 169 171 168 166 165 162 159 159 181 184 176 176 165 166 176 148 143 145 145 147 151 164 170 165 169 150 141 174 161 163 174 181 190 190 197 188 145 136 164 180 167 157 201 259 274 278 176 179 200 149 131 142 231 157 119 163 181 145 147 177 171 165 142 255 244 240 208 206 276 273 263 271 260 215 200 194 191 191 187 195 205 215 230
162 162 160 160 163 168 173 169 167 165 163 161 171 196 187 181 172 161 162 162 152 144 140 144 150 152 163 162 167 183 165 140 168 168 181 189 190 192 184 183 185 167 158 162 161 155 147 215 317 337 339 145 168 232 169 144 170 168 124 168 206 164 117 118 171 151 115 138 232 211 246 287 312 298 287 272 251 257 244 229 223 217 210 208 214 220 227 229
158 157 156 157 163 170 173 170 166 164 163 165 186 192 190 186 160 143 140 139 141 143 140 147 164 161 164 165 175 183 162 142 170 175 178 182 196 197 189 192 188 177 170 158 158 193 146 119 318 360 190 277 319 316 19 54 143 133 160 196 185 109 100 115 139 34 73 182 264 227 219 275 314 275 308 318 235 254 255 238 240 236 224 222 223 222 220 214
156 154 151 156 166 172 172 169 165 162 163 175 199 193 174 163 163 130 129 134 140 147 148 156 170 172 173 171 173 176 164 161 177 177 171 177 210 192 181 194 189 176 178 161 147 188 130 109 305 321 200 263 343 84 127 351 7 143 175 176 128 129 181 139 145 162 144 204 268 281 242 243 205 221 291 290 223 238 243 238 250 250 232 222 213 203 201 200
151 149 149 161 169 171 170 168 163 160 166 189 196 198 163 152 187 143 140 143 145 152 158 160 162 171 177 168 161 169 173 172 171 171 175 183 225 194 178 185 181 174 180 170 152 171 124 118 223 287 280 263 3 105 176 208 342 34 90 141 103 125 170 174 161 154 151 191 238 293 303 256 229 214 215 225 226 224 219 220 231 237 231 220 202 193 196 198
150 145 153 168 169 170 169 164 160 162 186 194 183 198 174 168 191 150 147 148 147 156 162 163 162 161 165 162 155 165 173 166 167 175 191 180 194 205 184 179 164 168 172 161 149 155 111 109 162 268 321 166 192 219 184 179 169 122 148 176 189 101 125 154 169 142 132 154 193 230 260 265 252 210 201 220 228 215 200 199 215 227 227 222 213 203 198 196
151 139 156 169 170 168 164 159 163 179 195 180 167 208 175 154 143 152 152 150 147 137 149 155 161 155 151 156 159 165 160 150 169 178 179 173 169 206 195 178 159 159 157 142 153 161 116 111 137 159 195 186 230 253 201 191 182 165 178 182 179 158 128 149 209 213 125 146 170 173 226 267 256 206 205 221 224 212 199 192 204 217 217 215 209 201 198 196
152 123 161 172 170 165 162 159 182 184 160 162 169 146 152 142 138 154 152 149 147 111 129 142 150 147 148 155 156 160 155 152 176 177 153 175 174 184 192 173 159 159 157 146 169 152 105 103 113 136 191 207 257 273 213 200 165 182 214 190 175 172 140 153 196 202 150 170 154 142 220 266 258 228 220 220 206 195 197 196 196 198 194 187 186 190 195 196
141 113 153 171 169 164 165 167 168 168 192 185 158 113 142 139 138 151 151 150 149 128 136 142 151 154 158 156 151 158 158 151 175 171 124 154 180 203 178 165 158 159 160 158 173 147 104 97 103 91 322 297 306 317 346 24 79 228 243 184 164 197 146 141 180 169 158 183 154 144 247 267 271 256 229 215 188 175 185 192 187 181 180 183 187 190 196 195
123 116 142 165 169 169 174 178 167 176 197 167 124 110 140 122 141 155 156 156 151 142 144 147 156 153 146 150 155 164 166 157 171 171 127 145 180 247 160 165 162 162 174 177 175 169 138 112 125 111 70 354 339 331 307 267 204 229 247 179 167 195 129 110 126 105 137 202 159 149 235 252 265 287 336 344 355 171 186 182 179 183 186 189 192 195 201 200
120 114 135 160 173 181 196 196 172 172 166 145 135 153 142 84 141 155 150 152 142 131 136 145 146 125 111 136 141 157 167 156 155 172 141 126 163 2 152 172 170 170 182 174 160 157 149 149 152 138 151 179 196 220 221 197 171 207 217 186 184 188 174 160 124 115 201 215 153 170 229 237 264 36 22 334 315 258 217 195 189 195 196 195 195 198 203 202
138 126 126 156 182 199 237 281 181 166 164 152 146 159 141 123 143 136 138 148 134 119 118 133 134 115 122 142 135 160 176 131 98 163 153 139 166 347 109 170 169 167 171 164 155 146 117 168 181 177 183 183 180 188 146 124 149 196 195 176 182 188 174 148 126 167 193 166 173 220 235 234 176 123 218 239 227 223 221 205 198 200 200 198 197 197 199 197
154 169 156 155 179 196 232 266 212 180 175 167 160 167 149 144 150 125 121 152 159 134 95 103 147 142 155 155 146 167 174 122 111 155 146 136 164 1 79 114 122 140 152 158 157 142 100 202 197 192 193 175 145 155 140 136 169 195 176 157 174 169 152 157 198 205 148 115 227 236 235 242 228 190 203 223 216 217 226 213 205 201 198 196 193 191 190 186
165 176 180 171 160 181 199 207 200 185 175 169 157 145 144 147 157 161 141 71 152 146 89 128 170 165 162 159 152 161 161 133 140 157 141 129 139 94 52 50 53 103 131 151 158 135 129 198 200 181 185 165 132 158 154 152 175 184 169 171 176 165 165 187 214 214 156 170 233 229 211 237 235 195 204 219 210 213 219 215 209 202 198 196 191 189 187 182
159 153 179 180 170 154 139 140 163 172 169 165 152 151 157 160 164 164 134 107 149 179 126 150 177 172 161 161 151 153 165 161 161 168 150 140 140 117 91 79 48 54 91 132 159 129 152 192 182 160 172 194 187 179 163 152 152 166 181 184 174 174 188 199 214 217 193 210 241 240 232 259 248 202 209 227 222 224 223 218 214 206 201 199 193 190 189 183
154 151 173 173 153 123 112 101 127 160 167 159 157 170 167 164 165 163 146 149 161 191 166 160 171 168 161 162 154 166 183 171 161 170 155 136 145 152 145 162 165 67 82 130 152 90 165 197 168 139 152 222 222 195 162 149 151 166 190 193 185 189 200 208 217 217 201 230 255 275 303 276 256 170 193 224 222 220 220 221 221 216 208 202 194 193 193 188
152 160 167 157 130 133 140 132 141 156 172 175 170 178 175 174 170 157 131 164 165 170 170 160 158 149 146 160 164 176 181 164 156 167 163 158 167 172 167 170 159 140 134 158 157 133 155 186 134 119 153 233 227 176 145 117 122 157 200 202 198 199 204 212 216 200 182 219 243 250 254 260 238 146 189 212 198 195 207 220 223 223 217 210 205 202 200 195
129 119 153 152 122 139 152 147 154 166 181 184 173 168 171 175 168 151 132 16 160 162 161 152 145 138 146 172 186 182 173 166 165 167 165 165 167 163 157 163 161 157 158 157 151 147 147 153 149 143 169 239 248 154 131 95 94 222 228 204 196 200 205 211 221 211 201 206 216 229 237 235 163 156 191 179 162 187 209 219 223 225 220 216 215 212 208 203